Find Starlink 32248

NORAD ID: 61219 Int'l Des: 2024-171 Owner: SPXS Country: US Constellation: starlink operational
LEOCIRCULAR

当前视图

正在加载3D地球...

About Starlink 32248

Starlink 32248 (NORAD 61219) is a starlink constellation satellite (v2 mini) launched Sep 20, 2024 by SPXS of US. It operates in LEO, CIRCULAR orbit with a mass of 730.00 kg.

关于 Starlink 32248

正在加载描述...

即将过境

Passes for default location (London). Set your location on the main map for personalized predictions.

高度历史

Loading altitude history...

两行轨道根数

1 61219U 24171V 26170.40973616 .00001610 00000-0 63647-4 0 9994
2 61219 53.1589 209.8659 0001222 97.9502 262.1638 15.31686065 98859
Epoch: Jun 19, 2026 • Age: 16 hours

当前状态

高度 473.1 km
速度 7.63 km/s
星下点 37.63°N, 52.45°E
发射日期 Sep 20, 2024
运行时间 1.7 years
类型 internet

技术详情

分类 Payload
质量 730.00 kg
干质量 700.00 kg
总质量 730.00 kg
长度 0.30 m
直径 4.10 m
跨度 29.00 m
形状 Box + pan
制造商 SPXS
平台类型 Starlink V2M
阶段状态 In Orbit
所有者/国家 SPXS/US

Most Searched